User: anonymous   Login
Location: Caltech
(34.1382°N, 118.1253°W)
Time: 05:38:59
(UTC-07:00)
Language:

SL-16 R/B - Orbit

View from above orbital plane
View from above orbital plane
View from above satellite
View from above satellite

Ground track
Ground track

The orbit data is extracted from the following two-line orbital elements,

1 31793U 07029B   17144.95869674 -.00000289 +00000-0 -12610-3 0  9996
2 31793 070.9756 077.9550 0002359 257.7775 168.2631 14.14378236511396
Epoch (UTC): 24 May 2017 23:00:31
Eccentricity: 0.0002359
inclination: 70.9756°
perigee height: 843 km
apogee height: 846 km
right ascension of ascending node: 77.9550°
argument of perigee: 257.7775°
revolutions per day: 14.14378236
mean anomaly at epoch: 168.2631°
orbit number at epoch: 51139

The dashed part of the orbit path shows where the satellite is in the earth's shadow,  

DLR